Time,TemperatureF,DewpointF,PressureIn,WindDirection,WindDirectionDegrees,WindSpeedMPH,WindSpeedGustMPH,Humidity,HourlyPrecipIn,Conditions,Clouds,dailyrainin,SolarRadiationWatts/m^2,SoftwareType,DateUTC
2013-08-22 00:02:00,91.0,70.0,-100.00,SE,132,8.0,11.0,50,0.00,,,0.00,1.000000,,2013-08-22 07:02:00,
2013-08-22 00:11:00,91.0,70.0,-100.00,SE,132,8.0,11.0,50,0.00,,,0.00,1.000000,,2013-08-22 07:11:00,
2013-08-22 00:42:00,90.0,70.0,-100.00,SE,146,10.0,13.0,52,0.00,,,0.00,1.000000,,2013-08-22 07:42:00,
2013-08-22 00:52:00,90.0,70.0,-100.00,SE,146,10.0,13.0,52,0.00,,,0.00,1.000000,,2013-08-22 07:52:00,
2013-08-22 01:03:00,90.0,70.0,-100.00,SE,146,10.0,13.0,52,0.00,,,0.00,1.000000,,2013-08-22 08:03:00,
2013-08-22 01:12:00,90.0,70.0,-100.00,SE,146,10.0,13.0,52,0.00,,,0.00,1.000000,,2013-08-22 08:12:00,
2013-08-22 01:43:00,88.0,74.0,-100.00,SSE,161,6.0,14.0,64,0.00,,,0.00,1.000000,,2013-08-22 08:43:00,
2013-08-22 01:53:00,88.0,74.0,-100.00,SSE,161,6.0,14.0,64,0.00,,,0.00,1.000000,,2013-08-22 08:53:00,
2013-08-22 02:01:00,88.0,74.0,-100.00,SSE,161,6.0,14.0,64,0.00,,,0.00,1.000000,,2013-08-22 09:01:00,
2013-08-22 02:11:00,88.0,74.0,-100.00,SSE,161,6.0,14.0,64,0.00,,,0.00,1.000000,,2013-08-22 09:11:00,
2013-08-22 02:43:00,86.0,72.0,-100.00,SE,144,8.0,11.0,63,0.00,,,0.00,1.000000,,2013-08-22 09:43:00,
2013-08-22 02:54:00,86.0,72.0,-100.00,SE,144,8.0,11.0,63,0.00,,,0.00,1.000000,,2013-08-22 09:54:00,
2013-08-22 03:03:00,86.0,72.0,-100.00,SE,144,8.0,11.0,63,0.00,,,0.00,1.000000,,2013-08-22 10:03:00,
2013-08-22 03:12:00,86.0,72.0,-100.00,SE,144,8.0,11.0,63,0.00,,,0.00,1.000000,,2013-08-22 10:12:00,
2013-08-22 03:16:00,86.0,73.0,-100.00,SE,134,10.0,13.0,66,0.00,,,0.00,1.000000,,2013-08-22 10:16:00,
2013-08-22 03:42:00,86.0,73.0,-100.00,SE,134,10.0,13.0,66,0.00,,,0.00,1.000000,,2013-08-22 10:42:00,
2013-08-22 05:42:00,86.0,72.0,-100.00,SE,140,6.0,11.0,63,0.00,,,0.00,1.000000,,2013-08-22 12:42:00,
2013-08-22 05:52:00,86.0,72.0,-100.00,SE,140,6.0,11.0,63,0.00,,,0.00,1.000000,,2013-08-22 12:52:00,
2013-08-22 06:02:00,86.0,72.0,-100.00,SE,140,6.0,11.0,63,0.00,,,0.00,1.000000,,2013-08-22 13:02:00,
2013-08-22 06:12:00,86.0,72.0,-100.00,SE,140,6.0,11.0,63,0.00,,,0.00,1.000000,,2013-08-22 13:12:00,
2013-08-22 06:42:00,85.0,72.0,-100.00,SE,127,6.0,9.0,66,0.00,,,0.00,1.000000,,2013-08-22 13:42:00,
2013-08-22 06:52:00,85.0,72.0,-100.00,SE,127,6.0,9.0,66,0.00,,,0.00,1.000000,,2013-08-22 13:52:00,
2013-08-22 07:01:00,85.0,72.0,-100.00,SE,127,6.0,9.0,66,0.00,,,0.00,1.000000,,2013-08-22 14:01:00,
2013-08-22 07:11:00,85.0,72.0,-100.00,SE,127,6.0,9.0,66,0.00,,,0.00,1.000000,,2013-08-22 14:11:00,
2013-08-22 07:42:00,86.0,73.0,-100.00,SE,129,7.0,10.0,66,0.00,,,0.00,25.000000,,2013-08-22 14:42:00,
2013-08-22 07:52:00,86.0,73.0,-100.00,SE,129,7.0,10.0,66,0.00,,,0.00,25.000000,,2013-08-22 14:52:00,
2013-08-22 08:01:00,86.0,73.0,-100.00,SE,129,7.0,10.0,66,0.00,,,0.00,25.000000,,2013-08-22 15:01:00,
2013-08-22 08:11:00,86.0,73.0,-100.00,SE,129,7.0,10.0,66,0.00,,,0.00,25.000000,,2013-08-22 15:11:00,
2013-08-22 08:43:00,88.0,74.0,-100.00,South,172,4.0,9.0,64,0.00,,,0.00,70.000000,,2013-08-22 15:43:00,
2013-08-22 08:55:00,88.0,74.0,-100.00,South,172,4.0,9.0,64,0.00,,,0.00,70.000000,,2013-08-22 15:55:00,
2013-08-22 09:05:00,88.0,74.0,-100.00,South,172,4.0,9.0,64,0.00,,,0.00,70.000000,,2013-08-22 16:05:00,
2013-08-22 09:14:00,88.0,74.0,-100.00,South,172,4.0,9.0,64,0.00,,,0.00,70.000000,,2013-08-22 16:14:00,
2013-08-22 09:43:00,90.0,74.0,-100.00,South,170,11.0,15.0,60,0.00,,,0.00,164.000000,,2013-08-22 16:43:00,
2013-08-22 09:54:00,90.0,74.0,-100.00,South,170,11.0,15.0,60,0.00,,,0.00,164.000000,,2013-08-22 16:54:00,
2013-08-22 10:02:00,90.0,74.0,-100.00,South,170,11.0,15.0,60,0.00,,,0.00,164.000000,,2013-08-22 17:02:00,
2013-08-22 10:12:00,90.0,74.0,-100.00,South,170,11.0,15.0,60,0.00,,,0.00,164.000000,,2013-08-22 17:12:00,
2013-08-22 10:43:00,94.0,75.0,-100.00,South,177,14.0,19.0,54,0.00,,,0.00,528.000000,,2013-08-22 17:43:00,
2013-08-22 10:53:00,94.0,75.0,-100.00,South,177,14.0,19.0,54,0.00,,,0.00,528.000000,,2013-08-22 17:53:00,
2013-08-22 11:02:00,94.0,75.0,-100.00,South,177,14.0,19.0,54,0.00,,,0.00,528.000000,,2013-08-22 18:02:00,
2013-08-22 11:12:00,94.0,75.0,-100.00,South,177,14.0,19.0,54,0.00,,,0.00,528.000000,,2013-08-22 18:12:00,
2013-08-22 12:42:00,99.0,70.0,-100.00,South,183,10.0,17.0,40,0.00,,,0.00,771.000000,,2013-08-22 19:42:00,
2013-08-22 12:53:00,99.0,70.0,-100.00,South,183,10.0,17.0,40,0.00,,,0.00,771.000000,,2013-08-22 19:53:00,
2013-08-22 13:02:00,99.0,70.0,-100.00,South,183,10.0,17.0,40,0.00,,,0.00,771.000000,,2013-08-22 20:02:00,
2013-08-22 13:11:00,99.0,70.0,-100.00,South,183,10.0,17.0,40,0.00,,,0.00,771.000000,,2013-08-22 20:11:00,
2013-08-22 13:42:00,102.0,71.0,-100.00,SSW,195,11.0,16.0,37,0.00,,,0.00,865.000000,,2013-08-22 20:42:00,
2013-08-22 13:52:00,102.0,71.0,-100.00,SSW,195,11.0,16.0,37,0.00,,,0.00,865.000000,,2013-08-22 20:52:00,
2013-08-22 14:02:00,102.0,71.0,-100.00,SSW,195,11.0,16.0,37,0.00,,,0.00,865.000000,,2013-08-22 21:02:00,
2013-08-22 14:12:00,102.0,71.0,-100.00,SSW,195,11.0,16.0,37,0.00,,,0.00,865.000000,,2013-08-22 21:12:00,
2013-08-22 14:44:00,105.0,69.0,-100.00,South,176,9.0,18.0,32,0.00,,,0.00,898.000000,,2013-08-22 21:44:00,
2013-08-22 14:54:00,105.0,69.0,-100.00,South,176,9.0,18.0,32,0.00,,,0.00,898.000000,,2013-08-22 21:54:00,
2013-08-22 15:05:00,105.0,69.0,-100.00,South,176,9.0,18.0,32,0.00,,,0.00,898.000000,,2013-08-22 22:05:00,
2013-08-22 15:13:00,105.0,69.0,-100.00,South,176,9.0,18.0,32,0.00,,,0.00,898.000000,,2013-08-22 22:13:00,
2013-08-22 15:42:00,106.0,65.0,-100.00,SSE,155,10.0,17.0,27,0.00,,,0.00,813.000000,,2013-08-22 22:42:00,
2013-08-22 15:53:00,106.0,65.0,-100.00,SSE,155,10.0,17.0,27,0.00,,,0.00,813.000000,,2013-08-22 22:53:00,
2013-08-22 16:02:00,106.0,65.0,-100.00,SSE,155,10.0,17.0,27,0.00,,,0.00,813.000000,,2013-08-22 23:02:00,
2013-08-22 16:11:00,106.0,65.0,-100.00,SSE,155,10.0,17.0,27,0.00,,,0.00,813.000000,,2013-08-22 23:11:00,
2013-08-22 16:42:00,105.0,69.0,-100.00,SSW,205,8.0,15.0,32,0.00,,,0.00,648.000000,,2013-08-22 23:42:00,
2013-08-22 16:52:00,105.0,69.0,-100.00,SSW,205,8.0,15.0,32,0.00,,,0.00,648.000000,,2013-08-22 23:52:00,
2013-08-22 17:02:00,105.0,69.0,-100.00,SSW,205,8.0,15.0,32,0.00,,,0.00,648.000000,,2013-08-23 00:02:00,
2013-08-22 17:11:00,105.0,69.0,-100.00,SSW,205,8.0,15.0,32,0.00,,,0.00,648.000000,,2013-08-23 00:11:00,
2013-08-22 17:42:00,99.0,65.0,-100.00,ESE,108,12.0,19.0,33,0.00,,,0.00,396.000000,,2013-08-23 00:42:00,
2013-08-22 17:52:00,99.0,65.0,-100.00,ESE,108,12.0,19.0,33,0.00,,,0.00,396.000000,,2013-08-23 00:52:00,
2013-08-22 18:01:00,99.0,65.0,-100.00,ESE,108,12.0,19.0,33,0.00,,,0.00,396.000000,,2013-08-23 01:01:00,
2013-08-22 18:11:00,99.0,65.0,-100.00,ESE,108,12.0,19.0,33,0.00,,,0.00,396.000000,,2013-08-23 01:11:00,
2013-08-22 18:52:00,83.0,68.0,-100.00,East,91,17.0,47.0,60,0.00,,,0.00,188.000000,,2013-08-23 01:52:00,
2013-08-22 19:02:00,83.0,68.0,-100.00,East,91,17.0,47.0,60,0.00,,,0.00,188.000000,,2013-08-23 02:02:00,
2013-08-22 19:11:00,83.0,68.0,-100.00,East,91,17.0,47.0,60,0.00,,,0.00,188.000000,,2013-08-23 02:11:00,
2013-08-22 19:52:00,90.0,58.0,-100.00,NNE,26,6.0,32.0,34,0.00,,,0.00,34.000000,,2013-08-23 02:52:00,
2013-08-22 20:02:00,90.0,58.0,-100.00,NNE,26,6.0,32.0,34,0.00,,,0.00,34.000000,,2013-08-23 03:02:00,
2013-08-22 20:55:00,82.0,68.0,-100.00,East,92,10.0,16.0,63,0.00,,,0.00,1.000000,,2013-08-23 03:55:00,
2013-08-22 21:04:00,82.0,68.0,-100.00,East,92,10.0,16.0,63,0.00,,,0.00,1.000000,,2013-08-23 04:04:00,
2013-08-22 21:13:00,82.0,68.0,-100.00,East,92,10.0,16.0,63,0.00,,,0.00,1.000000,,2013-08-23 04:13:00,
2013-08-22 21:43:00,84.0,67.0,-100.00,ENE,75,9.0,13.0,56,0.00,,,0.00,1.000000,,2013-08-23 04:43:00,
2013-08-22 21:54:00,84.0,67.0,-100.00,ENE,75,9.0,13.0,56,0.00,,,0.00,1.000000,,2013-08-23 04:54:00,
2013-08-22 22:03:00,84.0,67.0,-100.00,ENE,75,9.0,13.0,56,0.00,,,0.00,1.000000,,2013-08-23 05:03:00,
2013-08-22 22:13:00,84.0,67.0,-100.00,ENE,75,9.0,13.0,56,0.00,,,0.00,1.000000,,2013-08-23 05:13:00,
2013-08-22 22:42:00,84.0,68.0,-100.00,NE,54,8.0,17.0,58,0.00,,,0.00,1.000000,,2013-08-23 05:42:00,
2013-08-22 22:52:00,84.0,68.0,-100.00,NE,54,8.0,17.0,58,0.00,,,0.00,1.000000,,2013-08-23 05:52:00,
2013-08-22 23:02:00,84.0,68.0,-100.00,NE,54,8.0,17.0,58,0.00,,,0.00,1.000000,,2013-08-23 06:02:00,
2013-08-22 23:12:00,84.0,68.0,-100.00,NE,54,8.0,17.0,58,0.00,,,0.00,1.000000,,2013-08-23 06:12:00,
2013-08-22 23:42:00,83.0,69.0,-100.00,West,266,2.0,11.0,62,0.00,,,0.00,1.000000,,2013-08-23 06:42:00,
2013-08-22 23:52:00,83.0,69.0,-100.00,West,266,2.0,11.0,62,0.00,,,0.00,1.000000,,2013-08-23 06:52:00,